QPF
0.01 0.01 0.01 0.02 0.01 0.01 0.01 0.03 0.03 0.04 0.06 0.06 0.07 0.07 0.07 0.08 0.06 0.04 0.03 0.04 0.03 0.03 0.04 0.03 0.01 0.01 0.01 0.00 0.01 0.01 0.01 0.01 0.01 0.00 0.00 0.00 0.00 0.00 0.00 0.00 0.00 0.00 0.00
0.01 0.02 0.02 0.02 0.03 0.02 0.01 0.02 0.03 0.04 0.05 0.05 0.06 0.07 0.08 0.07 0.05 0.04 0.02 0.02 0.03 0.03 0.03 0.04 0.03 0.02 0.01 0.01 0.01 0.01 0.01 0.01 0.01 0.01 0.01 0.00 0.00 0.00 0.00 0.00 0.00 0.00 0.00
0.01 0.01 0.01 0.01 0.03 0.02 0.02 0.02 0.03 0.04 0.05 0.05 0.06 0.06 0.06 0.05 0.04 0.05 0.03 0.02 0.02 0.03 0.03 0.04 0.04 0.04 0.03 0.02 0.02 0.02 0.01 0.01 0.01 0.01 0.01 0.01 0.00 0.00 0.00 0.01 0.01 0.00 0.00
0.02 0.02 0.02 0.02 0.03 0.03 0.04 0.03 0.05 0.04 0.05 0.05 0.04 0.05 0.05 0.03 0.04 0.04 0.03 0.02 0.01 0.01 0.02 0.02 0.02 0.03 0.04 0.03 0.03 0.02 0.02 0.01 0.01 0.01 0.01 0.02 0.01 0.01 0.00 0.01 0.01 0.01 0.01
0.03 0.02 0.03 0.03 0.03 0.03 0.03 0.02 0.04 0.03 0.03 0.03 0.03 0.04 0.04 0.03 0.04 0.03 0.03 0.02 0.02 0.01 0.01 0.01 0.03 0.03 0.03 0.03 0.03 0.02 0.02 0.02 0.01 0.01 0.02 0.02 0.02 0.02 0.01 0.01 0.01 0.01 0.01
0.04 0.03 0.03 0.04 0.04 0.03 0.02 0.02 0.03 0.03 0.03 0.03 0.04 0.04 0.03 0.03 0.03 0.04 0.03 0.02 0.02 0.01 0.01 0.02 0.02 0.01 0.02 0.03 0.03 0.02 0.03 0.03 0.03 0.02 0.02 0.02 0.02 0.02 0.01 0.02 0.02 0.02 0.02
0.06 0.04 0.04 0.04 0.04 0.04 0.03 0.02 0.02 0.02 0.03 0.03 0.05 0.05 0.05 0.03 0.02 0.02 0.01 0.01 0.01 0.01 0.03 0.03 0.02 0.01 0.01 0.02 0.02 0.03 0.03 0.04 0.05 0.04 0.03 0.04 0.03 0.02 0.02 0.02 0.02 0.02 0.02
0.07 0.05 0.03 0.03 0.03 0.04 0.03 0.02 0.01 0.02 0.02 0.02 0.03 0.03 0.04 0.04 0.02 0.01 0.01 0.01 0.01 0.01 0.02 0.03 0.02 0.01 0.01 0.01 0.00 0.01 0.02 0.03 0.04 0.03 0.04 0.03 0.02 0.02 0.02 0.02 0.02 0.01 0.01
0.08 0.05 0.03 0.04 0.04 0.03 0.02 0.01 0.01 0.01 0.01 0.02 0.01 0.01 0.02 0.02 0.02 0.01 0.01 0.01 0.01 0.01 0.01 0.02 0.02 0.01 0.01 0.01 0.00 0.01 0.02 0.01 0.02 0.02 0.03 0.02 0.01 0.01 0.01 0.01 0.02 0.01 0.01
0.08 0.06 0.04 0.04 0.05 0.04 0.03 0.02 0.02 0.01 0.01 0.01 0.01 0.01 0.01 0.01 0.03 0.02 0.01 0.01 0.01 0.01 0.01 0.01 0.01 0.01 0.01 0.00 0.00 0.00 0.01 0.01 0.01 0.01 0.02 0.01 0.01 0.01 0.01 0.01 0.01 0.01 0.01
0.09 0.08 0.06 0.06 0.05 0.05 0.04 0.03 0.02 0.01 0.01 0.01 0.01 0.01 0.00 0.00 0.02 0.01 0.01 0.01 0.01 0.01 0.00 0.01 0.01 0.01 0.01 0.01 0.00 0.01 0.00 0.00 0.00 0.01 0.01 0.01 0.01 0.01 0.01 0.01 0.01 0.01 0.02
0.09 0.07 0.07 0.05 0.05 0.05 0.04 0.03 0.03 0.02 0.01 0.01 0.01 0.01 0.01 0.00 0.01 0.01 0.01 0.00 0.01 0.00 0.00 0.00 0.00 0.00 0.01 0.00 0.00 0.00 0.00 0.00 0.00 0.00 0.00 0.00 0.00 0.01 0.01 0.00 0.00 0.01 0.01
0.08 0.08 0.08 0.07 0.06 0.05 0.05 0.04 0.03 0.02 0.02 0.01 0.01 0.02 0.02 0.02 0.02 0.02 0.01 0.01 0.01 0.00 0.00 0.00 0.00 0.00 0.01 0.00 0.00 0.01 0.00 0.00 0.00 0.00 0.00 0.00 0.00 0.00 0.00 0.00 0.00 0.00 0.00
0.09 0.09 0.08 0.07 0.07 0.06 0.06 0.04 0.03 0.02 0.02 0.02 0.02 0.02 0.02 0.02 0.01 0.02 0.02 0.02 0.02 0.01 0.00 0.00 0.00 0.00 0.00 0.00 0.00 0.00 0.00 0.00 0.00 0.01 0.01 0.01 0.00 0.00 0.00 0.00 0.00 0.00 0.00
0.13 0.13 0.11 0.08 0.07 0.05 0.04 0.04 0.03 0.03 0.03 0.04 0.03 0.04 0.04 0.03 0.02 0.02 0.03 0.03 0.03 0.02 0.00 0.00 0.00 0.00 0.00 0.00 0.00 0.00 0.00 0.00 0.01 0.01 0.01 0.01 0.00 0.00 0.00 0.00 0.00 0.00 0.00
0.14 0.15 0.14 0.10 0.08 0.07 0.05 0.04 0.02 0.02 0.04 0.03 0.05 0.07 0.05 0.04 0.03 0.03 0.03 0.03 0.03 0.02 0.01 0.00 0.01 0.01 0.01 0.01 0.01 0.01 0.01 0.01 0.01 0.01 0.00 0.00 0.00 0.00 0.00 0.00 0.00 0.00 0.00
0.13 0.13 0.12 0.09 0.07 0.06 0.06 0.06 0.04 0.04 0.05 0.06 0.06 0.05 0.04 0.03 0.03 0.03 0.03 0.03 0.04 0.04 0.02 0.01 0.01 0.02 0.02 0.02 0.01 0.01 0.01 0.01 0.01 0.01 0.01 0.01 0.00 0.00 0.00 0.00 0.00 0.00 0.00
0.12 0.14 0.14 0.12 0.09 0.07 0.08 0.07 0.07 0.08 0.08 0.07 0.05 0.05 0.03 0.02 0.03 0.03 0.02 0.02 0.02 0.03 0.03 0.02 0.02 0.02 0.02 0.02 0.01 0.00 0.01 0.01 0.01 0.01 0.01 0.01 0.00 0.00 0.00 0.00 0.00 0.00 0.00
0.15 0.16 0.18 0.18 0.17 0.13 0.11 0.10 0.10 0.09 0.08 0.06 0.05 0.05 0.04 0.03 0.02 0.02 0.02 0.01 0.01 0.02 0.02 0.02 0.01 0.01 0.02 0.02 0.02 0.02 0.02 0.01 0.01 0.01 0.01 0.01 0.01 0.00 0.00 0.00 0.00 0.00 0.00
0.19 0.18 0.18 0.20 0.23 0.20 0.18 0.17 0.15 0.12 0.10 0.08 0.06 0.04 0.04 0.04 0.03 0.02 0.02 0.01 0.01 0.01 0.01 0.02 0.01 0.01 0.02 0.02 0.03 0.02 0.02 0.01 0.01 0.01 0.01 0.01 0.00 0.01 0.00 0.00 0.00 0.00 0.00
0.17 0.19 0.19 0.18 0.21 0.21 0.20 0.23 0.22 0.18 0.15 0.11 0.08 0.06 0.06 0.06 0.05 0.04 0.03 0.02 0.02 0.02 0.01 0.01 0.01 0.01 0.01 0.01 0.02 0.02 0.02 0.02 0.01 0.01 0.02 0.01 0.01 0.01 0.01 0.01 0.01 0.01 0.00
0.15 0.18 0.20 0.21 0.20 0.18 0.19 0.19 0.15 0.14 0.14 0.10 0.08 0.07 0.06 0.05 0.05 0.05 0.04 0.04 0.04 0.03 0.02 0.02 0.02 0.01 0.01 0.01 0.02 0.02 0.02 0.02 0.02 0.01 0.02 0.01 0.01 0.01 0.01 0.01 0.01 0.01 0.01
0.15 0.18 0.19 0.19 0.16 0.14 0.14 0.11 0.11 0.10 0.10 0.09 0.09 0.07 0.05 0.05 0.06 0.05 0.06 0.05 0.04 0.04 0.03 0.03 0.03 0.02 0.02 0.01 0.02 0.03 0.03 0.03 0.02 0.02 0.02 0.02 0.01 0.01 0.01 0.01 0.01 0.01 0.01
0.16 0.15 0.14 0.13 0.12 0.10 0.11 0.10 0.11 0.10 0.09 0.09 0.09 0.09 0.08 0.07 0.07 0.07 0.06 0.05 0.05 0.04 0.05 0.05 0.04 0.04 0.03 0.02 0.03 0.03 0.03 0.02 0.02 0.01 0.02 0.02 0.01 0.01 0.01 0.01 0.01 0.01 0.01
0.14 0.15 0.15 0.15 0.13 0.12 0.12 0.11 0.12 0.10 0.09 0.09 0.09 0.08 0.06 0.04 0.04 0.04 0.04 0.03 0.03 0.03 0.04 0.03 0.03 0.02 0.02 0.02 0.02 0.02 0.02 0.03 0.02 0.02 0.02 0.02 0.01 0.01 0.01 0.01 0.02 0.02 0.01
0.18 0.21 0.21 0.18 0.16 0.13 0.12 0.12 0.12 0.09 0.07 0.07 0.06 0.05 0.05 0.04 0.04 0.04 0.04 0.04 0.03 0.04 0.05 0.04 0.03 0.03 0.02 0.02 0.02 0.02 0.02 0.03 0.03 0.02 0.01 0.02 0.01 0.01 0.01 0.01 0.01 0.02 0.02
MSLP
1016.96 1017.08 1017.11 1017.10 1017.07 1017.08 1017.13 1017.24 1017.41 1017.61 1017.83 1018.04 1018.24 1018.42 1018.58 1018.73 1018.88 1019.03 1019.18 1019.33 1019.47 1019.61 1019.73 1019.84 1019.94 1020.03 1020.11 1020.17 1020.22 1020.25 1020.28 1020.32 1020.36 1020.44 1020.54 1020.69 1020.86 1021.05 1021.23 1021.39 1021.51 1021.59 1021.62
1016.78 1016.94 1017.02 1017.05 1017.07 1017.11 1017.20 1017.33 1017.51 1017.73 1017.97 1018.21 1018.43 1018.62 1018.79 1018.92 1019.03 1019.12 1019.21 1019.29 1019.38 1019.49 1019.60 1019.73 1019.87 1020.00 1020.12 1020.21 1020.27 1020.30 1020.31 1020.31 1020.33 1020.37 1020.47 1020.61 1020.80 1021.01 1021.21 1021.40 1021.54 1021.63 1021.67
1016.43 1016.65 1016.81 1016.92 1017.02 1017.13 1017.26 1017.42 1017.63 1017.86 1018.12 1018.37 1018.60 1018.80 1018.96 1019.07 1019.14 1019.17 1019.18 1019.20 1019.23 1019.28 1019.39 1019.52 1019.69 1019.86 1020.03 1020.16 1020.25 1020.29 1020.29 1020.28 1020.27 1020.30 1020.38 1020.51 1020.69 1020.90 1021.12 1021.31 1021.47 1021.57 1021.62
1015.96 1016.26 1016.51 1016.73 1016.93 1017.13 1017.32 1017.53 1017.76 1018.00 1018.26 1018.51 1018.75 1018.95 1019.10 1019.19 1019.22 1019.19 1019.14 1019.08 1019.04 1019.05 1019.12 1019.25 1019.44 1019.65 1019.86 1020.04 1020.17 1020.24 1020.26 1020.24 1020.22 1020.22 1020.27 1020.38 1020.55 1020.74 1020.95 1021.15 1021.30 1021.41 1021.48
1015.46 1015.83 1016.19 1016.53 1016.84 1017.13 1017.39 1017.65 1017.89 1018.14 1018.39 1018.64 1018.87 1019.07 1019.21 1019.28 1019.29 1019.22 1019.11 1018.99 1018.89 1018.84 1018.87 1018.99 1019.17 1019.41 1019.66 1019.88 1020.05 1020.16 1020.20 1020.19 1020.17 1020.15 1020.18 1020.26 1020.39 1020.56 1020.74 1020.92 1021.06 1021.17 1021.24
1014.99 1015.43 1015.88 1016.33 1016.75 1017.12 1017.46 1017.75 1018.02 1018.26 1018.50 1018.74 1018.96 1019.16 1019.31 1019.38 1019.38 1019.29 1019.15 1018.98 1018.82 1018.72 1018.70 1018.78 1018.95 1019.19 1019.45 1019.71 1019.92 1020.06 1020.13 1020.14 1020.12 1020.10 1020.10 1020.15 1020.24 1020.37 1020.52 1020.66 1020.79 1020.89 1020.96
1014.61 1015.09 1015.61 1016.15 1016.65 1017.11 1017.50 1017.82 1018.10 1018.34 1018.57 1018.80 1019.02 1019.23 1019.39 1019.49 1019.50 1019.42 1019.26 1019.06 1018.87 1018.71 1018.64 1018.66 1018.79 1019.01 1019.27 1019.53 1019.77 1019.94 1020.04 1020.08 1020.08 1020.06 1020.05 1020.07 1020.13 1020.21 1020.32 1020.42 1020.52 1020.59 1020.65
1014.33 1014.83 1015.39 1015.98 1016.54 1017.05 1017.48 1017.83 1018.11 1018.35 1018.57 1018.80 1019.04 1019.27 1019.47 1019.60 1019.65 1019.60 1019.45 1019.24 1019.01 1018.81 1018.68 1018.64 1018.71 1018.88 1019.11 1019.36 1019.60 1019.79 1019.92 1019.99 1020.01 1020.01 1020.00 1020.01 1020.04 1020.09 1020.16 1020.22 1020.28 1020.32 1020.36
1014.13 1014.62 1015.19 1015.80 1016.39 1016.92 1017.37 1017.73 1018.02 1018.26 1018.49 1018.73 1018.99 1019.25 1019.50 1019.69 1019.79 1019.78 1019.67 1019.47 1019.22 1018.98 1018.79 1018.68 1018.68 1018.78 1018.95 1019.16 1019.39 1019.58 1019.73 1019.84 1019.89 1019.92 1019.94 1019.95 1019.97 1020.00 1020.04 1020.06 1020.08 1020.09 1020.10
1013.96 1014.42 1014.98 1015.57 1016.16 1016.70 1017.16 1017.52 1017.81 1018.07 1018.31 1018.57 1018.86 1019.17 1019.46 1019.71 1019.88 1019.92 1019.85 1019.68 1019.43 1019.16 1018.92 1018.74 1018.66 1018.68 1018.78 1018.94 1019.12 1019.31 1019.47 1019.60 1019.70 1019.77 1019.81 1019.86 1019.89 1019.92 1019.94 1019.94 1019.93 1019.92 1019.90
1013.78 1014.20 1014.72 1015.28 1015.85 1016.37 1016.82 1017.19 1017.49 1017.76 1018.02 1018.31 1018.63 1018.98 1019.33 1019.64 1019.86 1019.97 1019.94 1019.80 1019.57 1019.29 1019.01 1018.78 1018.63 1018.56 1018.59 1018.68 1018.82 1018.97 1019.13 1019.28 1019.41 1019.52 1019.61 1019.69 1019.76 1019.80 1019.82 1019.82 1019.80 1019.76 1019.72
1013.52 1013.91 1014.39 1014.92 1015.46 1015.96 1016.41 1016.78 1017.09 1017.37 1017.66 1017.97 1018.32 1018.70 1019.09 1019.44 1019.71 1019.87 1019.89 1019.79 1019.59 1019.32 1019.03 1018.77 1018.56 1018.43 1018.38 1018.40 1018.48 1018.60 1018.74 1018.89 1019.03 1019.18 1019.32 1019.44 1019.54 1019.61 1019.65 1019.66 1019.63 1019.58 1019.53
1013.19 1013.56 1014.01 1014.51 1015.02 1015.51 1015.94 1016.32 1016.65 1016.95 1017.25 1017.58 1017.94 1018.34 1018.74 1019.12 1019.42 1019.62 1019.69 1019.64 1019.48 1019.24 1018.97 1018.70 1018.47 1018.29 1018.18 1018.14 1018.16 1018.22 1018.32 1018.45 1018.60 1018.76 1018.92 1019.08 1019.22 1019.33 1019.39 1019.41 1019.39 1019.34 1019.28
1012.78 1013.16 1013.60 1014.09 1014.59 1015.06 1015.50 1015.88 1016.22 1016.53 1016.84 1017.18 1017.54 1017.93 1018.33 1018.70 1019.01 1019.24 1019.35 1019.35 1019.25 1019.07 1018.85 1018.60 1018.37 1018.18 1018.03 1017.93 1017.88 1017.88 1017.92 1018.01 1018.13 1018.28 1018.45 1018.63 1018.79 1018.92 1019.01 1019.05 1019.04 1019.01 1018.95
1012.35 1012.75 1013.21 1013.70 1014.20 1014.68 1015.13 1015.52 1015.87 1016.18 1016.49 1016.80 1017.14 1017.50 1017.86 1018.21 1018.52 1018.75 1018.90 1018.95 1018.92 1018.82 1018.66 1018.48 1018.28 1018.10 1017.93 1017.79 1017.68 1017.61 1017.58 1017.60 1017.67 1017.79 1017.93 1018.10 1018.26 1018.40 1018.51 1018.56 1018.57 1018.54 1018.49
1011.94 1012.39 1012.88 1013.40 1013.92 1014.41 1014.87 1015.27 1015.62 1015.92 1016.21 1016.49 1016.78 1017.08 1017.39 1017.69 1017.96 1018.19 1018.36 1018.47 1018.51 1018.49 1018.43 1018.32 1018.19 1018.03 1017.87 1017.70 1017.54 1017.41 1017.30 1017.25 1017.24 1017.29 1017.39 1017.52 1017.66 1017.79 1017.89 1017.95 1017.97 1017.94 1017.90
1011.61 1012.11 1012.65 1013.21 1013.76 1014.27 1014.73 1015.14 1015.47 1015.75 1016.00 1016.22 1016.44 1016.67 1016.90 1017.14 1017.37 1017.58 1017.77 1017.92 1018.03 1018.10 1018.12 1018.11 1018.05 1017.95 1017.81 1017.64 1017.45 1017.26 1017.08 1016.94 1016.86 1016.83 1016.86 1016.93 1017.03 1017.13 1017.21 1017.25 1017.26 1017.23 1017.18
1011.39 1011.95 1012.54 1013.13 1013.71 1014.24 1014.71 1015.09 1015.41 1015.65 1015.83 1015.99 1016.12 1016.26 1016.41 1016.57 1016.75 1016.93 1017.11 1017.29 1017.46 1017.61 1017.73 1017.80 1017.83 1017.80 1017.70 1017.54 1017.34 1017.11 1016.87 1016.66 1016.50 1016.40 1016.35 1016.36 1016.40 1016.45 1016.49 1016.50 1016.48 1016.44 1016.37
1011.29 1011.90 1012.53 1013.16 1013.75 1014.29 1014.74 1015.10 1015.37 1015.55 1015.67 1015.74 1015.79 1015.84 1015.90 1015.98 1016.10 1016.24 1016.41 1016.60 1016.81 1017.02 1017.22 1017.38 1017.48 1017.51 1017.46 1017.34 1017.14 1016.90 1016.64 1016.38 1016.16 1015.99 1015.88 1015.82 1015.80 1015.79 1015.78 1015.75 1015.70 1015.61 1015.52
1011.31 1011.95 1012.61 1013.25 1013.85 1014.37 1014.79 1015.11 1015.32 1015.43 1015.47 1015.46 1015.43 1015.39 1015.37 1015.38 1015.43 1015.53 1015.68 1015.88 1016.11 1016.35 1016.60 1016.82 1016.98 1017.08 1017.08 1017.00 1016.84 1016.61 1016.35 1016.08 1015.82 1015.61 1015.45 1015.33 1015.25 1015.18 1015.12 1015.04 1014.93 1014.80 1014.66
1011.42 1012.07 1012.73 1013.37 1013.95 1014.44 1014.81 1015.07 1015.21 1015.25 1015.22 1015.13 1015.03 1014.92 1014.83 1014.78 1014.78 1014.85 1014.97 1015.15 1015.38 1015.64 1015.91 1016.16 1016.37 1016.52 1016.57 1016.54 1016.42 1016.23 1016.00 1015.73 1015.48 1015.25 1015.06 1014.90 1014.77 1014.65 1014.53 1014.39 1014.22 1014.03 1013.83
1011.58 1012.23 1012.88 1013.49 1014.03 1014.47 1014.78 1014.97 1015.05 1015.02 1014.92 1014.77 1014.61 1014.45 1014.33 1014.24 1014.21 1014.24 1014.34 1014.50 1014.71 1014.96 1015.22 1015.48 1015.72 1015.89 1015.99 1016.00 1015.93 1015.79 1015.60 1015.37 1015.13 1014.91 1014.70 1014.52 1014.35 1014.18 1014.01 1013.81 1013.58 1013.33 1013.07
1011.77 1012.39 1013.01 1013.58 1014.08 1014.45 1014.70 1014.83 1014.83 1014.75 1014.60 1014.42 1014.23 1014.06 1013.92 1013.82 1013.78 1013.79 1013.87 1014.00 1014.18 1014.40 1014.64 1014.88 1015.11 1015.29 1015.41 1015.46 1015.43 1015.34 1015.20 1015.01 1014.80 1014.59 1014.39 1014.19 1013.99 1013.78 1013.55 1013.29 1013.01 1012.70 1012.38
1011.96 1012.54 1013.12 1013.65 1014.08 1014.40 1014.59 1014.65 1014.61 1014.49 1014.32 1014.13 1013.94 1013.78 1013.66 1013.58 1013.55 1013.56 1013.62 1013.72 1013.87 1014.04 1014.24 1014.44 1014.63 1014.80 1014.92 1014.98 1014.99 1014.93 1014.82 1014.68 1014.50 1014.30 1014.10 1013.89 1013.66 1013.41 1013.14 1012.83 1012.49 1012.12 1011.75
1012.13 1012.68 1013.22 1013.69 1014.08 1014.34 1014.47 1014.50 1014.42 1014.29 1014.12 1013.95 1013.80 1013.68 1013.60 1013.55 1013.55 1013.57 1013.62 1013.70 1013.80 1013.93 1014.06 1014.21 1014.35 1014.48 1014.57 1014.63 1014.64 1014.60 1014.51 1014.39 1014.23 1014.04 1013.83 1013.60 1013.34 1013.06 1012.74 1012.39 1012.01 1011.60 1011.19
1012.28 1012.80 1013.30 1013.73 1014.07 1014.29 1014.39 1014.39 1014.31 1014.18 1014.04 1013.91 1013.81 1013.75 1013.72 1013.73 1013.76 1013.80 1013.85 1013.90 1013.96 1014.03 1014.10 1014.17 1014.25 1014.32 1014.38 1014.41 1014.40 1014.36 1014.27 1014.14 1013.98 1013.79 1013.57 1013.31 1013.03 1012.71 1012.36 1011.97 1011.56 1011.12 1010.67
Thickness
5753 5752 5750 5749 5748 5747 5746 5746 5744 5743 5742 5740 5738 5736 5734 5732 5730 5729 5727 5725 5724 5722 5721 5719 5718 5717 5716 5715 5714 5713 5712 5711 5710 5709 5708 5708 5707 5706 5706 5705 5704 5704 5703
5753 5751 5750 5748 5747 5747 5746 5745 5744 5743 5741 5740 5738 5737 5735 5732 5730 5729 5727 5725 5724 5722 5721 5719 5718 5717 5715 5714 5713 5712 5711 5710 5709 5708 5708 5707 5706 5705 5704 5704 5703 5702 5701
5753 5751 5750 5748 5748 5747 5746 5745 5744 5742 5741 5739 5737 5736 5734 5732 5731 5729 5727 5726 5724 5723 5721 5720 5718 5717 5716 5715 5714 5712 5711 5710 5709 5708 5707 5706 5705 5704 5704 5703 5702 5701 5700
5754 5751 5750 5748 5748 5746 5746 5744 5743 5741 5739 5737 5736 5735 5734 5732 5731 5730 5728 5726 5724 5723 5722 5720 5719 5718 5717 5715 5714 5713 5712 5711 5710 5708 5707 5706 5705 5704 5703 5702 5701 5700 5699
5753 5752 5750 5748 5747 5746 5745 5744 5742 5741 5737 5736 5735 5735 5734 5733 5731 5730 5728 5727 5725 5724 5722 5721 5719 5718 5717 5716 5715 5714 5713 5711 5710 5709 5708 5707 5705 5704 5703 5702 5701 5699 5698
5752 5751 5749 5748 5747 5745 5743 5743 5741 5740 5738 5736 5735 5734 5733 5733 5732 5731 5730 5728 5727 5725 5723 5722 5721 5719 5718 5717 5716 5715 5714 5713 5711 5710 5709 5707 5706 5705 5704 5702 5701 5699 5698
5750 5749 5748 5747 5746 5744 5743 5742 5740 5738 5736 5736 5731 5728 5730 5732 5732 5732 5731 5730 5728 5727 5725 5724 5722 5721 5720 5719 5717 5716 5715 5714 5713 5712 5710 5709 5707 5706 5705 5703 5701 5700 5699
5749 5748 5747 5746 5745 5744 5742 5741 5740 5736 5735 5736 5730 5723 5719 5722 5727 5732 5731 5730 5730 5729 5727 5725 5724 5723 5722 5721 5719 5718 5717 5716 5714 5713 5712 5710 5709 5707 5706 5704 5703 5701 5699
5748 5747 5746 5746 5745 5743 5741 5740 5740 5736 5732 5733 5734 5727 5718 5714 5720 5727 5730 5731 5731 5729 5728 5728 5726 5725 5723 5722 5721 5720 5719 5717 5716 5714 5713 5711 5710 5708 5707 5705 5704 5702 5701
5746 5746 5745 5745 5744 5743 5741 5740 5740 5738 5734 5730 5731 5732 5730 5727 5720 5719 5726 5730 5731 5730 5730 5730 5729 5727 5726 5724 5723 5722 5721 5719 5717 5715 5714 5712 5711 5709 5708 5706 5705 5703 5702
5745 5745 5744 5744 5743 5742 5741 5740 5740 5738 5736 5733 5731 5730 5729 5728 5726 5720 5718 5723 5727 5731 5731 5731 5730 5729 5728 5726 5725 5723 5722 5720 5719 5717 5715 5713 5712 5710 5709 5707 5706 5704 5703
5743 5744 5743 5743 5743 5742 5741 5740 5739 5738 5736 5735 5733 5731 5729 5726 5724 5721 5718 5719 5721 5728 5731 5732 5731 5730 5729 5727 5726 5725 5723 5721 5720 5718 5716 5714 5712 5711 5709 5708 5706 5705 5704
5740 5742 5743 5742 5741 5742 5741 5739 5738 5737 5736 5734 5733 5732 5731 5730 5728 5725 5721 5719 5720 5724 5728 5730 5731 5731 5730 5728 5727 5726 5724 5722 5720 5718 5716 5714 5712 5711 5709 5707 5706 5705 5703
5741 5742 5742 5741 5741 5741 5740 5738 5737 5736 5736 5734 5733 5732 5730 5730 5729 5727 5723 5719 5715 5716 5720 5724 5729 5730 5730 5729 5728 5726 5724 5722 5720 5718 5715 5713 5712 5710 5708 5706 5705 5703 5702
5741 5741 5741 5740 5739 5739 5738 5737 5735 5735 5734 5732 5731 5730 5729 5729 5729 5728 5726 5723 5717 5710 5712 5719 5724 5729 5728 5727 5726 5724 5722 5721 5719 5717 5714 5712 5710 5708 5706 5705 5703 5702 5700
5740 5740 5739 5738 5738 5737 5736 5735 5734 5733 5731 5730 5729 5728 5727 5727 5727 5726 5725 5723 5721 5715 5710 5716 5720 5724 5725 5725 5724 5722 5720 5718 5716 5714 5712 5710 5708 5706 5704 5702 5701 5699 5697
5738 5738 5737 5736 5736 5735 5734 5733 5732 5731 5729 5727 5726 5725 5724 5725 5723 5722 5721 5720 5718 5715 5710 5713 5717 5719 5720 5719 5719 5717 5716 5714 5713 5711 5709 5707 5705 5703 5701 5699 5697 5696 5694
5736 5736 5736 5735 5734 5733 5732 5730 5729 5728 5725 5723 5723 5722 5721 5721 5719 5718 5717 5716 5715 5714 5710 5708 5710 5712 5713 5713 5712 5710 5710 5709 5708 5707 5705 5703 5701 5699 5697 5695 5693 5691 5690
5733 5733 5732 5731 5730 5730 5729 5728 5726 5724 5723 5721 5720 5719 5718 5716 5714 5714 5713 5711 5711 5711 5709 5705 5704 5705 5705 5706 5704 5703 5703 5702 5702 5701 5699 5698 5696 5694 5692 5690 5688 5687 5685
5730 5730 5729 5728 5727 5726 5725 5723 5722 5720 5719 5718 5717 5716 5714 5713 5711 5710 5709 5707 5706 5704 5702 5700 5698 5697 5697 5698 5696 5693 5691 5692 5692 5693 5692 5691 5689 5688 5686 5685 5683 5681 5679
5728 5727 5725 5724 5723 5721 5720 5718 5717 5716 5715 5713 5712 5711 5710 5710 5709 5707 5706 5703 5701 5698 5696 5693 5691 5689 5688 5687 5685 5685 5683 5682 5683 5683 5682 5682 5681 5680 5679 5677 5676 5674 5673
5723 5722 5720 5719 5718 5717 5716 5715 5715 5713 5711 5708 5706 5706 5705 5704 5704 5703 5702 5700 5698 5694 5690 5687 5684 5681 5681 5680 5679 5676 5673 5670 5669 5673 5670 5671 5670 5669 5669 5668 5668 5666 5665
5718 5716 5715 5714 5712 5711 5711 5710 5709 5707 5705 5703 5702 5700 5700 5700 5698 5696 5695 5694 5692 5690 5688 5683 5678 5676 5674 5673 5670 5667 5664 5661 5661 5663 5659 5659 5660 5658 5660 5660 5658 5657 5656
5713 5711 5709 5708 5707 5705 5705 5703 5702 5701 5698 5697 5696 5695 5693 5692 5691 5688 5687 5685 5683 5681 5679 5677 5674 5671 5669 5666 5663 5660 5656 5654 5653 5652 5650 5647 5650 5649 5651 5649 5648 5647 5645
5708 5706 5704 5702 5700 5699 5698 5697 5696 5693 5691 5689 5689 5687 5685 5683 5682 5680 5677 5674 5673 5672 5671 5669 5666 5663 5660 5657 5654 5648 5644 5640 5639 5640 5639 5635 5637 5636 5638 5638 5637 5635 5633
5702 5699 5697 5694 5693 5691 5690 5690 5688 5685 5682 5681 5679 5678 5677 5674 5672 5671 5667 5664 5662 5660 5659 5657 5654 5652 5649 5646 5643 5638 5634 5629 5625 5625 5627 5622 5622 5620 5620 5624 5624 5621 5620